SCP
0 0 0 0 0 0 0 0 0 0 0 0 0 0 0 0 0 0 0 0 0 0 0 0 0 0 0 0 0 0 0 0 0 0 0 0 0 0 0 0 -0 -0 -0
0 0 0 0 0 0 0 0 0 0 0 0 0 0 0 0 0 0 0 0 0 0 0 0 0 0 0 0 0 0 0 0 0 0 0 0 0 0 0 0 0 0 -0
0 0 0 0 0 0 0 0 0 0 0 0 0 0 0 0 0 0 0 0 0 0 0 0 0 0 0 0 0 0 0 0 0 0 0 0 0 0 0 0 0 0 0
0 0 0 0 0 0 0 0 0 0 0 0 0 0 0 0 0 0 0 0 0 0 0 0 0 0 0 0 0 0 0 0 0 0 0 0 0 0 0 0 0 0 0
0 0 0 0 0 0 0 0 0 0 0 0 0 0 0 0 0 0 0 0 0 0 0 0 0 0 0 0 0 0 0 0 0 0 0 0 0 0 0 0 0 0 0
0 0 0 0 0 0 0 0 0 0 0 0 0 0 0 0 0 0 0 0 0 0 0 0 0 0 0 0 0 0 0 0 0 0 0 0 0 0 0 0 0 0 0
0 0 0 0 0 0 0 0 0 0 0 0 0 0 0 0 0 0 0 0 0 0 0 0 0 0 0 0 0 0 0 0 0 0 0 0 0 0 0 0 0 0 0
0 0 0 0 0 0 0 0 0 0 0 0 0 0 0 0 0 0 0 0 0 0 0 0 0 0 0 0 0 0 0 0 0 0 0 0 0 0 0 0 0 0 0
0 0 0 0 0 0 0 0 0 0 0 0 0 0 0 0 0 0 0 0 0 0 0 0 0 0 0 0 0 0 0 0 0 0 0 0 0 0 0 0 0 0 0
0 0 0 0 0 0 0 0 0 0 0 0 0 0 0 0 0 0 0 0 0 0 0 0 0 0 0 0 0 0 0 0 0 0 0 0 0 0 0 0 0 0 0
0 0 0 0 0 0 0 0 0 0 0 0 0 0 0 0 0 0 0 0 0 0 0 0 0 0 0 0 0 0 0 0 0 0 0 0 0 0 0 0 0 0 0
0 0 0 0 0 0 0 0 0 0 0 0 0 0 0 0 0 0 0 0 0 0 0 0 0 0 0 0 0 0 0 0 0 0 0 0 0 0 0 0 0 0 0
0 0 0 0 0 0 0 0 0 0 0 0 0 0 0 0 0 0 0 0 0 0 0 0 0 0 0 0 0 0 0 0 0 0 0 0 0 0 0 0 0 0 0
0 0 0 0 0 0 0 0 0 0 0 0 0 0 0 0 0 0 0 0 0 0 0 0 0 0 0 0 0 0 0 0 0 0 0 0 0 0 0 0 0 0 0
0 0 0 0 0 0 0 0 0 0 0 0 0 0 0 0 0 0 0 0 0 0 0 0 0 0 0 0 0 0 0 0 0 0 0 0 0 0 0 0 0 0 0
0 0 0 0 0 0 0 0 0 0 0 0 0 0 0 0 0 0 0 0 0 0 0 0 0 0 0 0 0 0 0 0 0 0 0 0 0 0 0 0 0 0 0
0 0 0 0 0 0 0 0 0 0 0 0 0 0 0 0 0 0 0 0 0 0 0 0 0 0 0 0 0 0 0 0 0 0 0 0 0 0 0 0 0 0 0
0 0 0 0 0 1 0 0 0 0 0 0 0 0 0 0 0 0 0 0 0 0 0 0 0 0 0 0 0 0 0 0 0 0 0 0 0 0 0 0 0 0 0
0 0 0 1 1 1 1 1 0 0 0 0 0 0 0 0 0 0 0 0 0 0 0 0 0 0 0 0 0 0 0 0 0 0 0 0 0 0 0 0 0 0 0
0 0 0 1 1 1 1 1 1 1 0 1 0 0 0 0 0 0 0 0 0 0 0 0 0 0 0 0 0 0 0 0 0 0 0 0 0 0 0 0 0 0 0
0 0 0 1 1 1 1 1 1 1 1 1 1 1 0 0 0 0 0 0 0 0 0 0 0 0 0 0 0 0 0 0 0 0 0 0 0 0 0 0 0 0 0
0 0 1 1 1 1 1 1 1 1 1 1 1 1 1 1 0 0 0 0 0 0 0 0 0 0 0 0 0 0 0 0 0 0 0 0 0 0 0 0 0 0 0
1 1 1 1 1 1 1 1 1 1 1 1 1 1 1 1 1 0 0 0 0 0 0 0 0 0 0 0 0 0 0 0 0 0 0 0 0 0 0 0 0 0 0
1 1 1 1 1 1 1 1 1 1 1 1 1 1 1 1 1 0 0 0 0 0 0 0 0 0 0 0 0 0 0 0 0 0 0 0 0 0 0 0 0 0 0
1 1 1 1 1 1 1 1 1 1 1 1 1 1 1 1 1 1 0 0 0 0 0 0 0 0 0 0 0 0 0 0 0 0 0 0 0 0 0 0 0 0 0
1 1 1 1 1 1 1 1 1 1 1 1 1 1 1 1 1 1 1 0 0 0 0 0 0 0 0 0 0 0 0 0 0 0 0 0 0 0 0 0 0 0 0
Wind_Speed
9 12 13 11 11 10 11 11 11 11 11 11 11 11 10 10 11 11 11 11 10 10 11 10 10 9 7 5 5 6 7 8 8 8 8 8 7 6 5 5 3 4 5
11 12 14 12 11 10 11 12 12 12 12 11 11 11 11 11 11 12 11 10 9 9 9 10 10 9 7 5 5 5 6 7 7 7 6 7 7 6 6 5 2 5 5
12 12 13 11 11 10 10 12 12 12 12 12 11 11 11 11 11 12 11 10 9 9 9 10 10 8 7 7 7 7 7 6 6 4 2 5 7 6 6 6 6 6 6
11 10 11 11 10 10 10 11 12 12 12 11 11 11 10 10 11 11 11 10 9 9 9 9 9 8 8 8 9 9 9 8 6 1 2 3 5 8 5 6 7 7 6
10 9 10 11 10 10 10 11 12 12 11 11 11 11 10 10 11 11 11 10 9 9 8 8 8 8 8 9 9 10 10 9 5 1 4 3 4 6 4 5 6 6 6
10 9 10 10 10 10 10 11 12 12 12 12 11 10 10 10 11 11 11 10 10 9 8 7 6 6 8 9 10 10 9 7 4 5 4 4 5 6 5 4 5 6 6
10 8 10 10 9 9 10 11 13 13 12 12 11 10 10 11 11 11 11 11 10 9 8 7 5 6 8 9 9 9 8 4 5 5 5 6 7 7 6 5 5 6 6
8 8 9 10 8 9 10 11 12 12 12 12 11 11 11 11 12 11 11 11 9 9 9 7 7 9 9 9 9 8 7 5 5 5 6 8 9 8 7 6 6 6 6
7 8 7 10 10 10 10 12 13 12 12 12 11 11 11 11 12 11 12 11 10 10 9 9 10 10 9 8 8 8 6 5 2 3 4 6 8 8 8 7 7 7 6
8 8 8 8 9 10 10 12 13 13 12 12 12 12 12 12 12 12 12 11 11 10 10 11 11 10 9 8 7 6 2 4 3 3 3 7 6 7 7 7 6 6 6
8 7 8 9 9 9 9 12 12 12 12 12 11 12 12 10 11 10 12 12 11 11 11 11 11 10 8 9 7 2 3 2 4 4 5 7 5 6 6 6 6 5 5
10 9 8 8 9 9 8 9 8 9 10 9 9 10 8 8 7 9 13 11 11 11 11 11 10 7 4 5 6 4 2 4 3 5 7 6 4 5 6 5 5 5 4
10 10 9 9 9 9 7 7 6 5 7 8 10 9 6 7 7 8 8 10 9 9 9 10 8 4 5 5 3 5 5 4 4 5 8 8 7 6 6 6 6 5 4
10 10 10 9 9 9 7 6 6 6 6 6 8 9 7 5 6 7 5 7 7 4 5 5 4 6 6 6 6 7 7 5 5 5 8 9 8 8 8 8 8 8 7
11 11 11 11 10 9 7 5 6 5 6 6 5 7 8 6 7 7 6 6 6 6 6 5 5 6 6 7 7 8 8 8 9 8 7 14 13 11 10 10 10 10 10
11 11 11 12 11 10 9 8 6 6 6 6 6 8 9 7 7 7 8 7 6 5 4 5 6 6 5 6 7 8 8 8 9 9 8 12 18 16 14 13 12 11 11
10 10 11 12 12 12 11 10 7 6 7 6 6 8 9 8 8 8 8 9 7 7 7 5 7 5 5 6 6 7 7 7 7 8 8 6 9 16 18 17 16 14 12
9 10 10 10 13 13 11 10 8 8 7 6 6 7 9 10 10 8 7 8 7 7 6 6 6 6 6 5 5 5 6 5 7 7 6 7 6 6 12 16 17 16 16
9 10 11 12 13 13 12 10 9 8 7 6 7 6 8 10 11 9 8 8 9 7 6 7 7 7 6 5 5 4 4 5 5 5 7 8 7 6 6 9 13 15 16
9 10 10 10 11 11 10 9 7 8 7 6 7 7 9 8 10 9 8 10 9 7 6 6 8 7 6 6 5 4 3 4 4 5 6 6 6 8 7 6 5 9 13
5 6 6 8 10 9 7 7 7 7 6 6 7 9 10 9 9 7 6 9 9 8 9 9 8 9 7 7 6 5 4 3 4 4 4 4 7 6 7 7 6 5 5
2 2 4 6 8 9 7 6 5 6 6 7 6 8 10 10 8 6 7 6 8 8 10 10 10 8 7 7 7 6 5 4 3 3 3 2 5 5 5 6 7 6 5
4 4 4 5 7 8 8 5 4 4 4 5 6 7 9 10 9 7 8 8 9 9 9 11 12 12 9 9 8 6 4 4 5 4 4 3 3 2 3 4 5 6 5
6 5 6 6 6 7 8 8 8 6 6 6 5 6 9 11 12 11 12 11 11 10 10 11 13 11 11 10 8 6 4 3 4 5 5 5 4 3 3 3 2 3 4
6 5 6 6 6 6 6 6 6 6 4 3 4 6 7 9 11 13 14 13 13 10 11 12 12 13 11 10 9 8 5 3 6 4 6 7 6 5 4 3 2 1 2
6 6 6 6 6 6 5 5 6 5 4 5 5 5 4 4 6 11 12 12 12 9 10 9 10 13 11 12 10 9 7 6 6 5 4 6 6 6 6 4 3 2 1
Wind_Direction
156 157 149 162 155 151 152 153 153 148 142 137 133 133 134 135 135 129 119 110 102 95 90 81 70 68 69 81 97 105 108 106 97 94 102 113 120 120 119 123 171 125 100
150 155 154 164 158 150 151 156 156 152 147 142 138 136 135 135 135 131 121 111 101 93 86 80 71 65 67 77 98 109 112 106 96 87 104 121 116 110 114 116 48 75 95
148 153 158 164 159 152 153 159 160 158 153 150 146 138 135 137 137 132 126 115 105 97 89 82 76 72 75 77 88 95 99 95 88 91 205 136 119 113 118 118 104 97 94
150 156 156 158 162 157 158 161 161 160 157 154 148 140 138 136 135 131 126 116 108 104 99 93 93 96 90 83 81 84 87 89 88 204 209 97 113 108 117 115 108 101 96
148 156 148 163 165 162 162 161 160 159 156 151 146 142 141 136 132 130 127 119 112 107 106 103 102 101 94 86 83 82 84 87 96 122 78 81 86 104 111 108 105 101 100
149 156 149 168 167 167 168 164 159 157 155 149 146 146 142 135 130 130 128 122 115 112 110 109 104 98 100 92 85 81 78 79 101 70 70 80 91 100 99 98 109 108 102
151 154 149 166 170 171 170 165 160 158 155 149 147 145 139 135 132 130 128 121 116 117 118 116 110 111 109 93 82 76 72 56 73 76 67 65 76 86 87 88 96 103 102
145 152 148 158 172 171 168 163 160 159 156 149 146 139 135 134 131 129 125 119 118 121 120 113 109 110 107 92 78 67 46 349 88 76 72 75 70 74 77 82 84 88 93
143 152 155 158 167 169 166 164 161 158 154 150 145 139 135 134 132 128 121 123 127 127 121 115 110 108 102 89 80 72 58 359 30 69 77 73 67 69 71 76 78 76 81
156 161 162 162 160 161 164 164 161 157 154 149 143 140 136 133 133 131 131 129 131 127 122 120 111 107 97 86 79 74 62 250 63 97 77 80 71 70 69 70 74 77 80
169 171 167 162 159 159 160 156 160 155 153 151 147 145 152 155 146 154 121 132 127 119 119 121 111 107 110 100 83 84 249 70 78 60 62 74 82 80 76 72 72 78 83
175 175 176 169 163 164 160 156 166 160 160 166 156 160 171 151 151 125 124 134 123 119 123 119 119 145 183 116 127 204 87 78 70 67 65 54 78 88 85 81 77 78 83
175 173 180 177 173 166 163 166 166 160 167 168 166 167 174 151 151 144 151 147 143 155 136 140 165 109 84 76 80 84 68 64 62 62 67 55 64 75 81 80 76 74 81
179 180 180 184 177 178 172 170 173 166 173 173 177 175 174 169 169 159 165 155 156 151 142 147 117 103 92 95 91 90 85 72 66 60 63 61 69 75 76 73 67 62 64
185 188 185 190 186 180 179 177 186 181 174 178 183 187 182 177 183 168 169 163 169 156 155 150 140 106 92 80 75 78 81 78 82 77 67 63 65 69 76 79 76 72 67
195 195 188 192 191 187 184 189 192 182 179 184 187 202 191 185 188 180 173 169 169 163 159 159 135 124 110 95 87 81 77 78 80 85 84 71 61 58 62 66 68 70 70
205 204 196 198 196 195 196 193 191 194 185 185 193 204 200 192 190 190 180 176 171 169 166 160 137 129 117 117 107 91 79 67 71 76 76 74 73 62 53 54 56 59 63
219 218 207 202 204 200 198 195 193 198 190 181 193 205 207 200 195 190 186 184 178 176 165 157 159 152 144 144 130 110 99 87 72 74 80 80 71 73 65 51 48 50 56
236 229 219 214 212 205 200 201 198 198 192 183 191 198 211 213 200 187 193 189 183 187 176 172 171 163 155 151 135 124 103 87 81 77 77 76 78 70 77 77 64 49 45
244 243 234 222 220 208 201 206 197 206 201 192 191 193 203 218 214 194 196 200 191 185 186 182 174 168 161 165 151 136 113 108 95 75 75 79 79 74 68 63 76 72 53
232 241 230 222 212 203 196 199 196 203 205 207 201 199 192 202 213 205 214 213 201 194 193 191 181 173 174 171 158 150 139 128 99 106 89 91 87 80 86 76 61 51 73
175 188 199 197 197 195 195 201 203 197 207 212 209 200 191 186 189 200 215 229 218 211 205 198 186 183 177 189 185 171 160 157 169 143 132 103 102 97 77 76 77 67 49
143 152 165 175 182 189 184 181 181 176 191 197 203 198 193 183 176 185 209 226 235 223 211 202 192 189 185 198 205 200 192 173 156 171 169 172 133 120 107 73 72 71 62
129 137 147 162 174 179 183 196 204 207 212 217 206 196 195 192 191 195 207 218 228 230 221 207 202 196 190 194 208 235 253 148 180 160 188 194 184 182 156 142 104 82 71
123 123 130 145 157 170 193 206 227 234 233 221 211 205 200 195 202 205 210 213 220 222 223 213 206 200 196 198 199 201 203 196 238 186 168 181 191 200 190 182 167 118 82
132 130 135 141 139 155 178 197 212 208 209 204 209 212 205 199 208 212 211 212 212 210 214 210 205 205 204 204 206 203 201 205 220 214 185 177 185 180 186 189 203 171 142